| time (UTC) | temp F | wind direction | speed knots | gust knots | rain 1hr in | rain 24hr in | rain mn in | humidity % | barometer mb |
| 20260504191611 | 78 | 98 | 6.1 | 10.4 | 0.00 | 2.56 | 1.34 | 83 | 1013.4 |
| 20260504190056 | 78 | 87 | 5.2 | 8.7 | 0.00 | 2.56 | 1.34 | 84 | 1013.6 |
| 20260504184554 | 78 | 76 | 6.1 | 8.7 | 0.00 | 3.16 | 1.34 | 84 | 1013.8 |
| 20260504183055 | 78 | 107 | 7.8 | 9.6 | 0.00 | 3.16 | 1.34 | 83 | 1013.8 |
| 20260504181601 | 78 | 99 | 7.8 | 10.4 | 0.00 | 3.16 | 1.34 | 83 | 1013.9 |
| 20260504180059 | 78 | 96 | 8.7 | 11.3 | 0.00 | 3.16 | 1.34 | 83 | 1014.1 |
| 20260504174555 | 78 | 88 | 9.6 | 12.2 | 0.00 | 3.16 | 1.34 | 83 | 1014.1 |
| 20260504173054 | 77 | 90 | 7.8 | 10.4 | 0.00 | 3.16 | 1.34 | 84 | 1014.3 |
| 20260504171558 | 77 | 84 | 7.8 | 10.4 | 0.00 | 3.16 | 1.34 | 84 | 1014.3 |
| 20260504090107 | 74 | 63 | 2.6 | 7.8 | 0.00 | 3.16 | 1.34 | 91 | 1012.5 |
| 20260504081555 | 73 | 36 | 4.3 | 7.8 | 0.33 | 3.16 | 1.34 | 92 | 1012.3 |
| 20260504044605 | 76 | 240 | 1.7 | 7.8 | 0.04 | 1.90 | 0.04 | 89 | 1014.6 |
| 20260504043054 | 76 | 244 | 4.3 | 9.6 | 0.00 | 1.86 | 0.00 | 88 | 1014.5 |
| 20260504041553 | 75 | 252 | 5.2 | 9.6 | 0.00 | 1.86 | 0.00 | 88 | 1014.3 |
| 20260504040110 | 75 | 227 | 4.3 | 8.7 | 0.00 | 1.86 | 0.00 | 88 | 1014.3 |
| 20260504034600 | 76 | 245 | 6.1 | 12.2 | 0.02 | 1.91 | 1.86 | 89 | 1014.1 |
| 20260504033055 | 75 | 229 | 5.2 | 9.6 | 0.02 | 1.91 | 1.86 | 89 | 1014.0 |
| 20260504031552 | 75 | 245 | 6.1 | 12.2 | 0.02 | 1.91 | 1.86 | 88 | 1014.3 |
| 20260504030052 | 76 | 261 | 6.1 | 12.2 | 0.02 | 1.91 | 1.86 | 87 | 1014.3 |
| 20260504024550 | 75 | 215 | 5.2 | 9.6 | 0.00 | 1.89 | 1.84 | 86 | 1015.0 |
| 20260504023053 | 76 | 201 | 4.3 | 13.0 | 0.00 | 1.89 | 1.84 | 87 | 1014.7 |
| 20260504021553 | 75 | 207 | 3.5 | 13.9 | 0.00 | 1.89 | 1.84 | 87 | 1014.8 |
| 20260504020052 | 75 | 152 | 6.1 | 15.6 | 0.00 | 1.89 | 1.84 | 87 | 1014.7 |
| 20260504014555 | 78 | 217 | 7.0 | 14.8 | 0.00 | 1.89 | 1.84 | 86 | 1014.4 |
| 20260504013103 | 78 | 206 | 1.7 | 7.0 | 0.00 | 1.89 | 1.84 | 85 | 1014.3 |
| 20260504011553 | 78 | 239 | 1.7 | 3.5 | 0.00 | 1.89 | 1.84 | 84 | 1014.2 |
| 20260504010101 | 78 | 0 | 0.0 | 2.6 | 0.00 | 1.89 | 1.84 | 85 | 1013.8 |
| 20260504004606 | 78 | 126 | 0.9 | 5.2 | 0.00 | 1.89 | 1.84 | 85 | 1013.8 |
| 20260504003055 | 78 | 132 | 2.6 | 6.1 | 0.00 | 1.89 | 1.84 | 87 | 1013.7 |
| 20260504001555 | 78 | 0 | 0.9 | 4.3 | 0.00 | 1.89 | 1.84 | 86 | 1013.6 |
| 20260504000132 | 77 | 154 | 0.9 | 4.3 | 0.00 | 1.89 | 1.84 | 85 | 1013.3 |
| 20260503234554 | 77 | 0 | 0.0 | 4.3 | 0.00 | 1.89 | 1.84 | 86 | 1013.2 |
| 20260503233055 | 77 | 138 | 0.9 | 3.5 | 0.00 | 1.89 | 1.84 | 85 | 1012.9 |
| 20260503231558 | 77 | 169 | 0.9 | 4.3 | 0.00 | 1.89 | 1.84 | 85 | 1012.7 |
| 20260503224555 | 77 | 200 | 0.9 | 5.2 | 0.00 | 1.89 | 1.84 | 86 | 1013.1 |
| 20260503223054 | 77 | 123 | 1.7 | 3.5 | 0.00 | 1.89 | 1.84 | 86 | 1012.6 |
| 20260503221559 | 76 | 117 | 1.7 | 5.2 | 0.00 | 1.89 | 1.84 | 87 | 1012.6 |
| 20260503220118 | 75 | 148 | 0.9 | 2.6 | 0.00 | 1.89 | 1.84 | 88 | 1012.5 |
| 20260503214558 | 75 | 84 | 1.7 | 5.2 | 0.00 | 1.89 | 1.84 | 89 | 1012.9 |
| 20260503213103 | 75 | 87 | 0.9 | 3.5 | 0.00 | 1.89 | 1.84 | 90 | 1012.7 |
| 20260503211559 | 74 | 132 | 0.9 | 3.5 | 0.01 | 1.89 | 1.84 | 90 | 1012.8 |
| 20260503210059 | 74 | 150 | 1.7 | 4.3 | 0.17 | 1.89 | 1.84 | 91 | 1013.1 |
| 20260503204605 | 73 | 113 | 2.6 | 7.8 | 0.30 | 1.89 | 1.84 | 91 | 1013.7 |
| 20260503203059 | 73 | 36 | 4.3 | 9.6 | 0.36 | 1.89 | 1.84 | 91 | 1014.1 |
| 20260503201555 | 72 | 86 | 1.7 | 6.1 | 0.77 | 1.88 | 1.83 | 90 | 1013.7 |
| 20260503200101 | 73 | 101 | 0.9 | 3.5 | 1.03 | 1.72 | 1.67 | 90 | 1014.3 |
| 20260503194556 | 73 | 0 | 0.0 | 3.5 | 0.90 | 1.59 | 1.54 | 90 | 1014.5 |
| 20260503193100 | 73 | 156 | 0.9 | 3.5 | 0.84 | 1.53 | 1.48 | 89 | 1014.6 |